Observations

BIA Manual Entry


Date Temp Humidity Rainfall Dew Point Wind Direction Wind Speed Wind Pressure Condition Visibility
2025-05-03 19:58:48 29 73 23 020 1.9 1009 Partly Cloudy (Night) 10 KM
2025-05-03 18:59:56 29 67 23 300 5.7 1009 Lightning 10 KM
2025-05-03 16:57:27 32 56 0.0 22 320 15.2 1007 Distant showers 15 KM
2025-05-03 15:58:49 32 54 0.0 22 310 13.3 1007 Distant showers 15 KM
2025-05-03 14:57:53 32 58 0.0 22 320 19.0 1008 Distant showers 15 KM
2025-05-03 14:01:31 32 61 0.0 23 320 15.2 1008 Partly Cloudy (Day) 20 KM
2025-05-03 12:58:18 32 62 23 290 13.3 1009 Partly Cloudy (Day) 20 KM
2025-05-03 11:58:15 31 62 23 330 17.1 1010 Partly Cloudy (Day) 20 KM
2025-05-03 10:58:41 31 60 23 270 7.6 1011 Partly Cloudy (Day) 20 KM
2025-05-03 09:58:19 30 66 23 220 3.8 1011 Partly Cloudy (Day) 20 km
2025-05-03 08:58:41 28 77 24 210 5.7 1010 Partly Cloudy (Day) 20 km
2025-05-03 08:00:28 26 85 23 220 3.8 1009 Partly Cloudy (Day) 15 km
2025-05-03 06:58:56 24 93 23 180 5.7 1009 Partly Cloudy (Day) 15 km
2025-05-03 05:59:40 24 96 23 180 3.8 1008 Partly Cloudy (Night) 10 km
2025-05-03 04:58:26 24 95 24 220 3.8 1008 Partly Cloudy (Night) 10 km
2025-05-03 03:58:13 24 94 24 210 7.6 1008 Partly Cloudy (Night) 10 km
2025-05-03 02:59:54 24 95 24 170 3.8 1008 Partly Cloudy (Night) 10 km
2025-05-03 02:01:33 24 96 24 180 1.9 1009 Rain 10 KM
2025-05-03 00:59:29 24 96 24 090 1.9 1010 Rain 10 KM
2025-05-03 00:00:09 24 97 24 070 1.9 1011 Rain 10 KM
2025-05-02 23:00:10 24 95 23 120 1.9 1011 Rain 10 KM
2025-05-02 22:00:00 24 94 23 110 1.9 1011 Rain 10 KM
2025-05-02 20:58:45 25 93 23 140 3.8 1011 Rain 10 km
2025-05-02 19:58:25 25 95 24 140 5.7 1010 Night Shower 09 km
2025-05-02 18:57:41 25 92 24 150 11.4 1010 Night Shower 10 km